Marshall, MN

3:50 PM CDT on March 28, 2017 (GMT -0500)
Marshall Municipal-Ryan

Weather History for KMML - February, 2014

Change the Weather History Date:

Sunday, February 23, 2014

  Actual Average Record
Temperature  
Mean Temperature 14 °F -  
Max Temperature 23 °F 31 °F 57 °F (2002)
Min Temperature 6 °F 13 °F -11 °F (1993)
Degree Days  
Heating Degree Days 50    
Moisture  
Dew Point 4 °F    
Average Humidity 64    
Maximum Humidity 73    
Minimum Humidity 53    
Precipitation  
Precipitation 0.00 in - - ()
Sea Level Pressure  
Sea Level Pressure 30.25 in    
Wind  
Wind Speed 13 mph (NW)    
Max Wind Speed 21 mph    
Max Gust Speed 25 mph    
Visibility 10 miles    
Events      
Averages and records for this station are not official NWS values.
T = Trace of Precipitation, MM = Missing Value Source: NWS Daily Summary

Daily Weather History Graph

Daily Weather History Graph

Search for Another Location

Airport or City:

Trip Planner

Search our weather history database for the weather conditions in past years. The results will help you decide how hot, cold, wet, or windy it might be!

Date:

Astronomy

Feb. 23, 2014 Rise Set
Actual Time 7:10 AM CST 6:03 PM CST
Civil Twilight 6:41 AM CST 6:32 PM CST
Nautical Twilight 6:07 AM CST 7:06 PM CST
Astronomical Twilight 5:33 AM CST 7:40 PM CST
Moon 2:16 AM CST (2/23) 11:59 AM CST (2/23)
Length of Visible Light 11h 51m
Length of Day
10h 52m
Last Quarter, 38% of the Moon is Illuminated
Feb 23
Last Quarter
Mar 1
New
Mar 8
First Quarter
Mar 16
Full
Mar 23
Last Quarter

Hourly Weather History & Observations

Time (CST) Temp. Windchill Dew Point Humidity Pressure Visibility Wind Dir Wind Speed Gust Speed Precip Events Conditions
12:15 AM 12.2 °F -2.5 °F 3.2 °F 67% 30.17 in 10.0 mi NW 12.7 mph - N/A   Clear
12:35 AM 10.4 °F -4.1 °F 3.2 °F 73% 30.18 in 10.0 mi NW 11.5 mph - N/A   Clear
12:55 AM 10.4 °F -2.4 °F 1.4 °F 67% 30.18 in 10.0 mi WNW 9.2 mph - N/A   Clear
1:15 AM 10.4 °F -3.3 °F 1.4 °F 67% 30.19 in 10.0 mi WNW 10.4 mph - N/A   Clear
1:35 AM 10.4 °F -4.1 °F 1.4 °F 67% 30.19 in 10.0 mi WNW 11.5 mph - N/A   Clear
1:55 AM 10.4 °F -2.4 °F 1.4 °F 67% 30.19 in 10.0 mi WNW 9.2 mph - N/A   Clear
2:15 AM 10.4 °F -2.4 °F 1.4 °F 67% 30.20 in 10.0 mi West 9.2 mph - N/A   Clear
2:35 AM 8.6 °F -4.7 °F 1.4 °F 73% 30.20 in 10.0 mi West 9.2 mph - N/A   Clear
2:55 AM 8.6 °F -4.7 °F 1.4 °F 73% 30.20 in 10.0 mi West 9.2 mph - N/A   Clear
3:15 AM 8.6 °F -4.7 °F 1.4 °F 73% 30.19 in 10.0 mi West 9.2 mph - N/A   Clear
3:35 AM 8.6 °F -6.3 °F 1.4 °F 73% 30.19 in 10.0 mi West 11.5 mph - N/A   Clear
3:55 AM 8.6 °F -4.7 °F 1.4 °F 73% 30.18 in 10.0 mi WNW 9.2 mph - N/A   Clear
4:15 AM 8.6 °F -4.7 °F 1.4 °F 73% 30.18 in 10.0 mi West 9.2 mph - N/A   Clear
4:35 AM 8.6 °F -3.7 °F -0.4 °F 67% 30.19 in 10.0 mi WNW 8.1 mph - N/A   Clear
4:55 AM 8.6 °F -4.7 °F -0.4 °F 67% 30.19 in 10.0 mi WNW 9.2 mph - N/A   Clear
5:15 AM 6.8 °F -6.9 °F -0.4 °F 72% 30.19 in 10.0 mi WNW 9.2 mph - N/A   Clear
5:35 AM 6.8 °F -8.6 °F -0.4 °F 72% 30.20 in 10.0 mi NW 11.5 mph - N/A   Clear
5:55 AM 8.6 °F -7.0 °F -0.4 °F 67% 30.20 in 10.0 mi NW 12.7 mph - N/A   Clear
6:15 AM 8.6 °F -8.3 °F -0.4 °F 67% 30.21 in 10.0 mi WNW 15.0 mph - N/A   Clear
6:35 AM 8.6 °F -7.7 °F -0.4 °F 67% 30.21 in 10.0 mi NW 13.8 mph - N/A   Clear
6:55 AM 8.6 °F -7.7 °F -0.4 °F 67% 30.21 in 10.0 mi WNW 13.8 mph - N/A   Clear
7:15 AM 8.6 °F -7.7 °F -0.4 °F 67% 30.21 in 10.0 mi NW 13.8 mph - N/A   Clear
7:35 AM 8.6 °F -7.0 °F -0.4 °F 67% 30.22 in 10.0 mi WNW 12.7 mph - N/A   Clear
7:55 AM 8.6 °F -7.7 °F -0.4 °F 67% 30.23 in 10.0 mi WNW 13.8 mph - N/A   Clear
8:15 AM 10.4 °F -6.0 °F -0.4 °F 62% 30.24 in 10.0 mi WNW 15.0 mph - N/A   Clear
8:35 AM 10.4 °F -7.2 °F -0.4 °F 62% 30.25 in 10.0 mi NW 17.3 mph - N/A   Clear
8:55 AM 12.2 °F -5.8 °F 1.4 °F 62% 30.26 in 10.0 mi NW 19.6 mph 23.0 mph N/A   Clear
9:15 AM 12.2 °F -4.8 °F 1.4 °F 62% 30.26 in 10.0 mi NW 17.3 mph - N/A   Clear
9:35 AM 12.2 °F -4.8 °F 1.4 °F 62% 30.26 in 10.0 mi NW 17.3 mph 24.2 mph N/A   Clear
9:55 AM 14.0 °F -3.4 °F 1.4 °F 57% 30.27 in 10.0 mi NW 19.6 mph - N/A   Clear
10:15 AM 15.8 °F -0.2 °F 1.4 °F 53% 30.27 in 10.0 mi NW 17.3 mph - N/A   Clear
10:35 AM 15.8 °F -1.1 °F 1.4 °F 53% 30.27 in 10.0 mi NW 19.6 mph - N/A   Clear
10:55 AM 15.8 °F -0.6 °F 3.2 °F 58% 30.27 in 10.0 mi WNW 18.4 mph - N/A   Clear
11:15 AM 17.6 °F 1.3 °F 5.0 °F 58% 30.27 in 10.0 mi NW 19.6 mph 23.0 mph N/A   Clear
11:35 AM 17.6 °F 1.3 °F 6.8 °F 63% 30.27 in 10.0 mi WNW 19.6 mph - N/A   Clear
11:55 AM 19.4 °F 4.5 °F 6.8 °F 58% 30.27 in 10.0 mi NW 17.3 mph 23.0 mph N/A   Clear
12:15 PM 19.4 °F 5.0 °F 6.8 °F 58% 30.27 in 10.0 mi NW 16.1 mph 23.0 mph N/A   Clear
12:35 PM 19.4 °F 3.6 °F 6.8 °F 58% 30.26 in 10.0 mi NW 19.6 mph - N/A   Clear
12:55 PM 21.2 °F 6.4 °F 6.8 °F 54% 30.26 in 10.0 mi NW 18.4 mph 23.0 mph N/A   Clear
1:15 PM 21.2 °F 6.4 °F 6.8 °F 54% 30.26 in 10.0 mi NW 18.4 mph 25.3 mph N/A   Clear
1:35 PM 21.2 °F 7.8 °F 6.8 °F 54% 30.26 in 10.0 mi NW 15.0 mph 23.0 mph N/A   Clear
1:55 PM 21.2 °F 7.3 °F 6.8 °F 54% 30.26 in 10.0 mi NW 16.1 mph 24.2 mph N/A   Clear
2:15 PM 21.2 °F 8.3 °F 8.6 °F 58% 30.26 in 10.0 mi NW 13.8 mph - N/A   Clear
2:35 PM 23.0 °F 8.7 °F 8.6 °F 54% 30.26 in 10.0 mi NW 18.4 mph 25.3 mph N/A   Clear
2:55 PM 23.0 °F 9.2 °F 8.6 °F 54% 30.25 in 10.0 mi NNW 17.3 mph - N/A   Clear
3:15 PM 23.0 °F 8.7 °F 8.6 °F 54% 30.25 in 10.0 mi NW 18.4 mph 25.3 mph N/A   Clear
3:35 PM 23.0 °F 9.2 °F 8.6 °F 54% 30.25 in 10.0 mi NW 17.3 mph - N/A   Clear
3:55 PM 23.0 °F 9.6 °F 8.6 °F 54% 30.25 in 10.0 mi NNW 16.1 mph 21.9 mph N/A   Clear
4:15 PM 23.0 °F 9.2 °F 8.6 °F 54% 30.25 in 10.0 mi NW 17.3 mph 23.0 mph N/A   Clear
4:35 PM 23.0 °F 8.3 °F 8.6 °F 54% 30.25 in 10.0 mi NW 19.6 mph - N/A   Partly Cloudy
4:55 PM 21.2 °F 7.3 °F 6.8 °F 54% 30.25 in 10.0 mi NW 16.1 mph - N/A   Clear
5:15 PM 21.2 °F 6.8 °F 8.6 °F 58% 30.26 in 10.0 mi NW 17.3 mph 21.9 mph N/A   Clear
5:35 PM 21.2 °F 5.6 °F 8.6 °F 58% 30.26 in 10.0 mi NW 20.7 mph 24.2 mph N/A   Partly Cloudy
5:55 PM 19.4 °F 6.0 °F 8.6 °F 63% 30.26 in 10.0 mi NW 13.8 mph - N/A   Partly Cloudy
6:15 PM 19.4 °F 7.2 °F 8.6 °F 63% 30.27 in 10.0 mi NW 11.5 mph - N/A   Clear
6:35 PM 17.6 °F 5.0 °F 8.6 °F 68% 30.27 in 10.0 mi NW 11.5 mph - N/A   Clear
6:55 PM 17.6 °F 5.7 °F 8.6 °F 68% 30.28 in 10.0 mi NW 10.4 mph - N/A   Clear
7:15 PM 17.6 °F 5.0 °F 8.6 °F 68% 30.28 in 10.0 mi NW 11.5 mph - N/A   Clear
7:35 PM 17.6 °F 5.7 °F 6.8 °F 63% 30.28 in 10.0 mi WNW 10.4 mph - N/A   Clear
7:55 PM 15.8 °F 3.4 °F 6.8 °F 68% 30.28 in 10.0 mi WNW 10.4 mph - N/A   Clear
8:15 PM 15.8 °F 3.4 °F 6.8 °F 68% 30.28 in 10.0 mi NW 10.4 mph - N/A   Clear
8:35 PM 15.8 °F 3.4 °F 6.8 °F 68% 30.29 in 10.0 mi NW 10.4 mph - N/A   Clear
8:55 PM 15.8 °F 2.7 °F 6.8 °F 68% 30.29 in 10.0 mi NW 11.5 mph - N/A   Clear
9:15 PM 14.0 °F 0.5 °F 6.8 °F 73% 30.30 in 10.0 mi NW 11.5 mph - N/A   Clear
9:35 PM 14.0 °F 0.5 °F 5.0 °F 67% 30.30 in 10.0 mi NW 11.5 mph - N/A   Clear
9:55 PM 14.0 °F -0.2 °F 5.0 °F 67% 30.30 in 10.0 mi NW 12.7 mph - N/A   Clear
10:15 PM 12.2 °F -2.5 °F 3.2 °F 67% 30.31 in 10.0 mi NW 12.7 mph - N/A   Clear
10:35 PM 12.2 °F -2.5 °F 3.2 °F 67% 30.31 in 10.0 mi NW 12.7 mph - N/A   Clear
10:55 PM 10.4 °F -4.8 °F 3.2 °F 73% 30.31 in 10.0 mi WNW 12.7 mph - N/A   Clear
11:15 PM 10.4 °F -4.1 °F 3.2 °F 73% 30.31 in 10.0 mi WNW 11.5 mph - N/A   Clear
11:35 PM 10.4 °F -4.8 °F 1.4 °F 67% 30.31 in 10.0 mi NW 12.7 mph - N/A   Clear
11:55 PM 10.4 °F -4.8 °F 1.4 °F 67% 30.31 in 10.0 mi NW 12.7 mph - N/A   Clear